Year,Month,Day,Hour,Minute,Value (Times are PST for temperature in C)
2012,10,04,00,00,6.70
2012,10,04,00,01,6.70
2012,10,04,00,02,6.70
2012,10,04,00,03,6.80
2012,10,04,00,04,6.80
2012,10,04,00,05,6.90
2012,10,04,00,06,6.90
2012,10,04,00,07,6.90
2012,10,04,00,08,6.90
2012,10,04,00,09,7.00
2012,10,04,00,10,7.00
2012,10,04,00,11,7.10
2012,10,04,00,12,7.10
2012,10,04,00,13,7.10
2012,10,04,00,14,7.10
2012,10,04,00,15,7.10
2012,10,04,00,16,7.10
2012,10,04,00,17,7.10
2012,10,04,00,18,7.00
2012,10,04,00,19,7.00
2012,10,04,00,20,7.00
2012,10,04,00,21,7.00
2012,10,04,00,22,6.90
2012,10,04,00,23,6.90
2012,10,04,00,24,6.90
2012,10,04,00,25,6.90
2012,10,04,00,26,6.90
2012,10,04,00,27,6.90
2012,10,04,00,28,6.90
2012,10,04,00,29,6.90
2012,10,04,00,30,6.90
2012,10,04,00,31,6.90
2012,10,04,00,32,6.90
2012,10,04,00,33,7.00
2012,10,04,00,34,7.00
2012,10,04,00,35,7.00
2012,10,04,00,36,7.10
2012,10,04,00,37,7.10
2012,10,04,00,38,7.10
2012,10,04,00,39,7.10
2012,10,04,00,40,7.10
2012,10,04,00,41,7.10
2012,10,04,00,42,7.20
2012,10,04,00,43,7.20
2012,10,04,00,44,7.20
2012,10,04,00,45,7.20
2012,10,04,00,46,7.20
2012,10,04,00,47,7.20
2012,10,04,00,48,7.20
2012,10,04,00,49,7.30
2012,10,04,00,50,7.30
2012,10,04,00,51,7.30
2012,10,04,00,52,7.30
2012,10,04,00,53,7.40
2012,10,04,00,54,7.40
2012,10,04,00,55,7.40
2012,10,04,00,56,7.40
2012,10,04,00,57,7.30
2012,10,04,00,58,7.30
2012,10,04,00,59,7.30
2012,10,04,01,00,7.20
2012,10,04,01,01,7.20
2012,10,04,01,02,7.20
2012,10,04,01,03,7.10
2012,10,04,01,04,7.10
2012,10,04,01,05,7.00
2012,10,04,01,06,7.00
2012,10,04,01,07,6.90
2012,10,04,01,08,6.90
2012,10,04,01,09,6.80
2012,10,04,01,10,6.80
2012,10,04,01,11,6.70
2012,10,04,01,12,6.60
2012,10,04,01,13,6.60
2012,10,04,01,14,6.50
2012,10,04,01,15,6.50
2012,10,04,01,16,6.40
2012,10,04,01,17,6.30
2012,10,04,01,18,6.30
2012,10,04,01,19,6.20
2012,10,04,01,20,6.20
2012,10,04,01,21,6.10
2012,10,04,01,22,6.10
2012,10,04,01,23,6.00
2012,10,04,01,24,6.00
2012,10,04,01,25,5.90
2012,10,04,01,26,5.90
2012,10,04,01,27,5.80
2012,10,04,01,28,5.80
2012,10,04,01,29,5.80
2012,10,04,01,30,5.70
2012,10,04,01,31,5.70
2012,10,04,01,32,5.70
2012,10,04,01,33,5.60
2012,10,04,01,34,5.60
2012,10,04,01,35,5.50
2012,10,04,01,36,5.50
2012,10,04,01,37,5.40
2012,10,04,01,38,5.40
2012,10,04,01,39,5.40
2012,10,04,01,40,5.30
2012,10,04,01,41,5.30
2012,10,04,01,42,5.30
2012,10,04,01,43,5.30
2012,10,04,01,44,5.20
2012,10,04,01,45,5.20
2012,10,04,01,46,5.20
2012,10,04,01,47,5.20
2012,10,04,01,48,5.10
2012,10,04,01,49,5.10
2012,10,04,01,50,5.10
2012,10,04,01,51,5.10
2012,10,04,01,52,5.10
2012,10,04,01,53,5.10
2012,10,04,01,54,5.10
2012,10,04,01,55,5.00
2012,10,04,01,56,5.00
2012,10,04,01,57,5.00
2012,10,04,01,58,5.00
2012,10,04,01,59,5.00
2012,10,04,02,00,5.00
2012,10,04,02,01,5.00
2012,10,04,02,02,4.90
2012,10,04,02,03,4.90
2012,10,04,02,04,4.90
2012,10,04,02,05,4.90
2012,10,04,02,06,4.90
2012,10,04,02,07,4.90
2012,10,04,02,08,4.90
2012,10,04,02,09,4.90
2012,10,04,02,10,4.90
2012,10,04,02,11,4.90
2012,10,04,02,12,4.90
2012,10,04,02,13,4.90
2012,10,04,02,14,4.90
2012,10,04,02,15,4.90
2012,10,04,02,16,4.90
2012,10,04,02,17,4.90
2012,10,04,02,18,4.90
2012,10,04,02,19,4.90
2012,10,04,02,20,4.90
2012,10,04,02,21,4.90
2012,10,04,02,22,4.90
2012,10,04,02,23,4.90
2012,10,04,02,24,4.90
2012,10,04,02,25,4.90
2012,10,04,02,26,4.90
2012,10,04,02,27,4.90
2012,10,04,02,28,4.90
2012,10,04,02,29,4.90
2012,10,04,02,30,4.90
2012,10,04,02,31,4.90
2012,10,04,02,32,5.00
2012,10,04,02,33,5.00
2012,10,04,02,34,4.90
2012,10,04,02,35,4.90
2012,10,04,02,36,4.90
2012,10,04,02,37,4.90
2012,10,04,02,38,4.90
2012,10,04,02,39,4.90
2012,10,04,02,40,4.90
2012,10,04,02,41,4.90
2012,10,04,02,42,4.90
2012,10,04,02,43,4.90
2012,10,04,02,44,4.90
2012,10,04,02,45,4.90
2012,10,04,02,46,4.90
2012,10,04,02,47,4.90
2012,10,04,02,48,4.90
2012,10,04,02,49,4.90
2012,10,04,02,50,4.90
2012,10,04,02,51,4.90
2012,10,04,02,52,4.90
2012,10,04,02,53,4.90
2012,10,04,02,54,4.90
2012,10,04,02,55,4.90
2012,10,04,02,56,4.90
2012,10,04,02,57,5.00
2012,10,04,02,58,4.90
2012,10,04,02,59,4.90
2012,10,04,03,00,4.90
2012,10,04,03,01,4.90
2012,10,04,03,02,4.90
2012,10,04,03,03,4.90
2012,10,04,03,04,4.90
2012,10,04,03,05,4.90
2012,10,04,03,06,4.90
2012,10,04,03,07,4.90
2012,10,04,03,08,4.90
2012,10,04,03,09,4.90
2012,10,04,03,10,4.80
2012,10,04,03,11,4.80
2012,10,04,03,12,4.80
2012,10,04,03,13,4.80
2012,10,04,03,14,4.80
2012,10,04,03,15,4.80
2012,10,04,03,16,4.70
2012,10,04,03,17,4.70
2012,10,04,03,18,4.70
2012,10,04,03,19,4.70
2012,10,04,03,20,4.70
2012,10,04,03,21,4.70
2012,10,04,03,22,4.70
2012,10,04,03,23,4.70
2012,10,04,03,24,4.70
2012,10,04,03,25,4.60
2012,10,04,03,26,4.60
2012,10,04,03,27,4.60
2012,10,04,03,28,4.60
2012,10,04,03,29,4.50
2012,10,04,03,30,4.50
2012,10,04,03,31,4.40
2012,10,04,03,32,4.40
2012,10,04,03,33,4.40
2012,10,04,03,34,4.40
2012,10,04,03,35,4.40
2012,10,04,03,36,4.30
2012,10,04,03,37,4.30
2012,10,04,03,38,4.30
2012,10,04,03,39,4.30
2012,10,04,03,40,4.30
2012,10,04,03,41,4.30
2012,10,04,03,42,4.30
2012,10,04,03,43,4.30
2012,10,04,03,44,4.30
2012,10,04,03,45,4.20
2012,10,04,03,46,4.20
2012,10,04,03,47,4.20
2012,10,04,03,48,4.20
2012,10,04,03,49,4.20
2012,10,04,03,50,4.20
2012,10,04,03,51,4.20
2012,10,04,03,52,4.20
2012,10,04,03,53,4.20
2012,10,04,03,54,4.20
2012,10,04,03,55,4.20
2012,10,04,03,56,4.20
2012,10,04,03,57,4.20
2012,10,04,03,58,4.20
2012,10,04,03,59,4.20
2012,10,04,04,00,4.20
2012,10,04,04,01,4.10
2012,10,04,04,02,4.10
2012,10,04,04,03,4.10
2012,10,04,04,04,4.10
2012,10,04,04,05,4.10
2012,10,04,04,06,4.10
2012,10,04,04,07,4.10
2012,10,04,04,08,4.10
2012,10,04,04,09,4.10
2012,10,04,04,10,4.10
2012,10,04,04,11,4.00
2012,10,04,04,12,4.00
2012,10,04,04,13,4.00
2012,10,04,04,14,3.90
2012,10,04,04,15,3.90
2012,10,04,04,16,3.90
2012,10,04,04,17,3.90
2012,10,04,04,18,3.90
2012,10,04,04,19,3.90
2012,10,04,04,20,3.90
2012,10,04,04,21,3.90
2012,10,04,04,22,3.90
2012,10,04,04,23,3.90
2012,10,04,04,24,3.90
2012,10,04,04,25,3.90
2012,10,04,04,26,3.90
2012,10,04,04,27,3.90
2012,10,04,04,28,3.90
2012,10,04,04,29,3.90
2012,10,04,04,30,3.90
2012,10,04,04,31,3.90
2012,10,04,04,32,3.90
2012,10,04,04,33,3.90
2012,10,04,04,34,3.90
2012,10,04,04,35,3.90
2012,10,04,04,36,3.90
2012,10,04,04,37,3.90
2012,10,04,04,38,3.90
2012,10,04,04,39,3.90
2012,10,04,04,40,3.90
2012,10,04,04,41,3.80
2012,10,04,04,42,3.80
2012,10,04,04,43,3.80
2012,10,04,04,44,3.80
2012,10,04,04,45,3.80
2012,10,04,04,46,3.80
2012,10,04,04,47,3.80
2012,10,04,04,48,3.80
2012,10,04,04,49,3.80
2012,10,04,04,50,3.80
2012,10,04,04,51,3.80
2012,10,04,04,52,3.80
2012,10,04,04,53,3.80
2012,10,04,04,54,3.80
2012,10,04,04,55,3.80
2012,10,04,04,56,3.80
2012,10,04,04,57,3.80
2012,10,04,04,58,3.90
2012,10,04,04,59,3.90
2012,10,04,05,00,3.90
2012,10,04,05,01,3.90
2012,10,04,05,02,3.90
2012,10,04,05,03,3.90
2012,10,04,05,04,3.90
2012,10,04,05,05,3.90
2012,10,04,05,06,4.00
2012,10,04,05,07,4.00
2012,10,04,05,08,3.90
2012,10,04,05,09,3.90
2012,10,04,05,10,3.90
2012,10,04,05,11,3.90
2012,10,04,05,12,3.90
2012,10,04,05,13,3.90
2012,10,04,05,14,3.80
2012,10,04,05,15,3.80
2012,10,04,05,16,3.80
2012,10,04,05,17,3.80
2012,10,04,05,18,3.80
2012,10,04,05,19,3.80
2012,10,04,05,20,3.80
2012,10,04,05,21,3.80
2012,10,04,05,22,3.80
2012,10,04,05,23,3.80
2012,10,04,05,24,3.90
2012,10,04,05,25,4.00
2012,10,04,05,26,4.10
2012,10,04,05,27,4.20
2012,10,04,05,28,4.30
2012,10,04,05,29,4.40
2012,10,04,05,30,4.50
2012,10,04,05,31,4.50
2012,10,04,05,32,4.50
2012,10,04,05,33,4.50
2012,10,04,05,34,4.50
2012,10,04,05,35,4.50
2012,10,04,05,36,4.50
2012,10,04,05,37,4.40
2012,10,04,05,38,4.40
2012,10,04,05,39,4.40
2012,10,04,05,40,4.40
2012,10,04,05,41,4.30
2012,10,04,05,42,4.30
2012,10,04,05,43,4.30
2012,10,04,05,44,4.30
2012,10,04,05,45,4.20
2012,10,04,05,46,4.20
2012,10,04,05,47,4.20
2012,10,04,05,48,4.20
2012,10,04,05,49,4.10
2012,10,04,05,50,4.10
2012,10,04,05,51,4.10
2012,10,04,05,52,4.10
2012,10,04,05,53,4.10
2012,10,04,05,54,4.00
2012,10,04,05,55,4.00
2012,10,04,05,56,4.00
2012,10,04,05,57,3.90
2012,10,04,05,58,3.90
2012,10,04,05,59,3.90
2012,10,04,06,00,3.90
2012,10,04,06,01,3.90
2012,10,04,06,02,3.80
2012,10,04,06,03,3.80
2012,10,04,06,04,3.80
2012,10,04,06,05,3.80
2012,10,04,06,06,3.80
2012,10,04,06,07,3.80
2012,10,04,06,08,3.70
2012,10,04,06,09,3.70
2012,10,04,06,10,3.70
2012,10,04,06,11,3.70
2012,10,04,06,12,3.70
2012,10,04,06,13,3.70
2012,10,04,06,14,3.60
2012,10,04,06,15,3.60
2012,10,04,06,16,3.60
2012,10,04,06,17,3.60
2012,10,04,06,18,3.60
2012,10,04,06,19,3.60
2012,10,04,06,20,3.60
2012,10,04,06,21,3.60
2012,10,04,06,22,3.60
2012,10,04,06,23,3.60
2012,10,04,06,24,3.60
2012,10,04,06,25,3.70
2012,10,04,06,26,3.70
2012,10,04,06,27,3.70
2012,10,04,06,28,3.70
2012,10,04,06,29,3.70
2012,10,04,06,30,3.80
2012,10,04,06,31,3.80
2012,10,04,06,32,3.80
2012,10,04,06,33,3.90
2012,10,04,06,34,3.90
2012,10,04,06,35,4.00
2012,10,04,06,36,4.00
2012,10,04,06,37,4.10
2012,10,04,06,38,4.20
2012,10,04,06,39,4.30
2012,10,04,06,40,4.30
2012,10,04,06,41,4.40
2012,10,04,06,42,4.50
2012,10,04,06,43,4.60
2012,10,04,06,44,4.70
2012,10,04,06,45,4.80
2012,10,04,06,46,4.80
2012,10,04,06,47,4.90
2012,10,04,06,48,4.90
2012,10,04,06,49,5.00
2012,10,04,06,50,5.00
2012,10,04,06,51,5.00
2012,10,04,06,52,5.00
2012,10,04,06,53,5.00
2012,10,04,06,54,5.00
2012,10,04,06,55,5.00
2012,10,04,06,56,4.90
2012,10,04,06,57,4.90
2012,10,04,06,58,4.90
2012,10,04,06,59,4.90
2012,10,04,07,00,4.90
2012,10,04,07,01,4.80
2012,10,04,07,02,4.80
2012,10,04,07,03,4.80
2012,10,04,07,04,4.70
2012,10,04,07,05,4.70
2012,10,04,07,06,4.70
2012,10,04,07,07,4.70
2012,10,04,07,08,4.70
2012,10,04,07,09,4.70
2012,10,04,07,10,4.70
2012,10,04,07,11,4.70
2012,10,04,07,12,4.70
2012,10,04,07,13,4.70
2012,10,04,07,14,4.70
2012,10,04,07,15,4.70
2012,10,04,07,16,4.70
2012,10,04,07,17,4.70
2012,10,04,07,18,4.70
2012,10,04,07,19,4.70
2012,10,04,07,20,4.60
2012,10,04,07,21,4.60
2012,10,04,07,22,4.60
2012,10,04,07,23,4.60
2012,10,04,07,24,4.60
2012,10,04,07,25,4.60
2012,10,04,07,26,4.60
2012,10,04,07,27,4.70
2012,10,04,07,28,4.70
2012,10,04,07,29,4.70
2012,10,04,07,30,4.70
2012,10,04,07,31,4.70
2012,10,04,07,32,4.70
2012,10,04,07,33,4.70
2012,10,04,07,34,4.70
2012,10,04,07,35,4.70
2012,10,04,07,36,4.70
2012,10,04,07,37,4.70
2012,10,04,07,38,4.70
2012,10,04,07,39,4.70
2012,10,04,07,40,4.70
2012,10,04,07,41,4.70
2012,10,04,07,42,4.80
2012,10,04,07,43,4.90
2012,10,04,07,44,5.00
2012,10,04,07,45,5.00
2012,10,04,07,46,5.10
2012,10,04,07,47,5.20
2012,10,04,07,48,5.30
2012,10,04,07,49,5.40
2012,10,04,07,50,5.50
2012,10,04,07,51,5.60
2012,10,04,07,52,5.60
2012,10,04,07,53,5.70
2012,10,04,07,54,5.70
2012,10,04,07,55,5.70
2012,10,04,07,56,5.80
2012,10,04,07,57,5.80
2012,10,04,07,58,5.80
2012,10,04,07,59,5.80
2012,10,04,08,00,5.80
2012,10,04,08,01,5.80
2012,10,04,08,02,5.80
2012,10,04,08,03,5.80
2012,10,04,08,04,5.90
2012,10,04,08,05,5.90
2012,10,04,08,06,5.90
2012,10,04,08,07,6.00
2012,10,04,08,08,6.10
2012,10,04,08,09,6.20
2012,10,04,08,10,6.30
2012,10,04,08,11,6.40
2012,10,04,08,12,6.40
2012,10,04,08,13,6.50
2012,10,04,08,14,6.50
2012,10,04,08,15,6.50
2012,10,04,08,16,6.60
2012,10,04,08,17,6.60
2012,10,04,08,18,6.60
2012,10,04,08,19,6.70
2012,10,04,08,20,6.70
2012,10,04,08,21,6.70
2012,10,04,08,22,6.80
2012,10,04,08,23,6.80
2012,10,04,08,24,6.80
2012,10,04,08,25,6.90
2012,10,04,08,26,6.90
2012,10,04,08,27,7.00
2012,10,04,08,28,7.00
2012,10,04,08,29,7.10
2012,10,04,08,30,7.10
2012,10,04,08,31,7.20
2012,10,04,08,32,7.20
2012,10,04,08,33,7.20
2012,10,04,08,34,7.30
2012,10,04,08,35,7.40
2012,10,04,08,36,7.40
2012,10,04,08,37,7.50
2012,10,04,08,38,7.50
2012,10,04,08,39,7.60
2012,10,04,08,40,7.70
2012,10,04,08,41,7.70
2012,10,04,08,42,7.80
2012,10,04,08,43,7.90
2012,10,04,08,44,8.00
2012,10,04,08,45,8.10
2012,10,04,08,46,8.20
2012,10,04,08,47,8.20
2012,10,04,08,48,8.30
2012,10,04,08,49,8.40
2012,10,04,08,50,8.50
2012,10,04,08,51,8.60
2012,10,04,08,52,8.80
2012,10,04,08,53,9.00
2012,10,04,08,54,9.10
2012,10,04,08,55,9.20
2012,10,04,08,56,9.30
2012,10,04,08,57,9.40
2012,10,04,08,58,9.50
2012,10,04,08,59,9.60
2012,10,04,09,00,9.70
2012,10,04,09,01,9.80
2012,10,04,09,02,10.00
2012,10,04,09,03,10.10
2012,10,04,09,04,10.20
2012,10,04,09,05,10.30
2012,10,04,09,06,10.40
2012,10,04,09,07,10.60
2012,10,04,09,08,10.80
2012,10,04,09,09,10.80
2012,10,04,09,10,11.00
2012,10,04,09,11,11.10
2012,10,04,09,12,11.20
2012,10,04,09,13,11.30
2012,10,04,09,14,11.40
2012,10,04,09,15,11.40
2012,10,04,09,16,11.50
2012,10,04,09,17,11.60
2012,10,04,09,18,11.70
2012,10,04,09,19,11.70
2012,10,04,09,20,11.80
2012,10,04,09,21,11.80
2012,10,04,09,22,11.90
2012,10,04,09,23,11.90
2012,10,04,09,24,11.90
2012,10,04,09,25,11.90
2012,10,04,09,26,11.90
2012,10,04,09,27,12.00
2012,10,04,09,28,12.00
2012,10,04,09,29,12.10
2012,10,04,09,30,12.10
2012,10,04,09,31,12.20
2012,10,04,09,32,12.20
2012,10,04,09,33,12.20
2012,10,04,09,34,12.30
2012,10,04,09,35,12.30
2012,10,04,09,36,12.40
2012,10,04,09,37,12.40
2012,10,04,09,38,12.50
2012,10,04,09,39,12.50
2012,10,04,09,40,12.60
2012,10,04,09,41,12.60
2012,10,04,09,42,12.70
2012,10,04,09,43,12.70
2012,10,04,09,44,12.70
2012,10,04,09,45,12.80
2012,10,04,09,46,12.80
2012,10,04,09,47,12.80
2012,10,04,09,48,12.90
2012,10,04,09,49,13.00
2012,10,04,09,50,13.00
2012,10,04,09,51,13.00
2012,10,04,09,52,13.10
2012,10,04,09,53,13.20
2012,10,04,09,54,13.30
2012,10,04,09,55,13.30
2012,10,04,09,56,13.30
2012,10,04,09,57,13.30
2012,10,04,09,58,13.40
2012,10,04,09,59,13.40
2012,10,04,10,00,13.40
2012,10,04,10,01,13.40
2012,10,04,10,02,13.30
2012,10,04,10,03,13.30
2012,10,04,10,04,13.30
2012,10,04,10,05,13.30
2012,10,04,10,06,13.30
2012,10,04,10,07,13.30
2012,10,04,10,08,13.20
2012,10,04,10,09,13.20
2012,10,04,10,10,13.30
2012,10,04,10,11,13.30
2012,10,04,10,12,13.30
2012,10,04,10,13,13.30
2012,10,04,10,14,13.30
2012,10,04,10,15,13.30
2012,10,04,10,16,13.40
2012,10,04,10,17,13.40
2012,10,04,10,18,13.40
2012,10,04,10,19,13.40
2012,10,04,10,20,13.50
2012,10,04,10,21,13.50
2012,10,04,10,22,13.60
2012,10,04,10,23,13.70
2012,10,04,10,24,13.80
2012,10,04,10,25,13.80
2012,10,04,10,26,13.80
2012,10,04,10,27,13.90
2012,10,04,10,28,13.90
2012,10,04,10,29,14.00
2012,10,04,10,30,14.00
2012,10,04,10,31,14.10
2012,10,04,10,32,14.10
2012,10,04,10,33,14.20
2012,10,04,10,34,14.20
2012,10,04,10,35,14.30
2012,10,04,10,36,14.30
2012,10,04,10,37,14.30
2012,10,04,10,38,14.30
2012,10,04,10,39,14.40
2012,10,04,10,40,14.50
2012,10,04,10,41,14.50
2012,10,04,10,42,14.60
2012,10,04,10,43,14.60
2012,10,04,10,44,14.70
2012,10,04,10,45,14.70
2012,10,04,10,46,14.70
2012,10,04,10,47,14.70
2012,10,04,10,48,14.70
2012,10,04,10,49,14.70
2012,10,04,10,50,14.70
2012,10,04,10,51,14.70
2012,10,04,10,52,14.70
2012,10,04,10,53,14.70
2012,10,04,10,54,14.70
2012,10,04,10,55,14.80
2012,10,04,10,56,14.80
2012,10,04,10,57,14.90
2012,10,04,10,58,14.90
2012,10,04,10,59,15.00
2012,10,04,11,00,15.00
2012,10,04,11,01,15.00
2012,10,04,11,02,15.00
2012,10,04,11,03,15.00
2012,10,04,11,04,15.00
2012,10,04,11,05,15.00
2012,10,04,11,06,15.00
2012,10,04,11,07,15.00
2012,10,04,11,08,15.00
2012,10,04,11,09,15.10
2012,10,04,11,10,15.20
2012,10,04,11,11,15.20
2012,10,04,11,12,15.20
2012,10,04,11,13,15.20
2012,10,04,11,14,15.30
2012,10,04,11,15,15.30
2012,10,04,11,16,15.30
2012,10,04,11,17,15.40
2012,10,04,11,18,15.40
2012,10,04,11,19,15.50
2012,10,04,11,20,15.60
2012,10,04,11,21,15.60
2012,10,04,11,22,15.70
2012,10,04,11,23,15.70
2012,10,04,11,24,15.70
2012,10,04,11,25,15.60
2012,10,04,11,26,15.50
2012,10,04,11,27,15.50
2012,10,04,11,28,15.40
2012,10,04,11,29,15.40
2012,10,04,11,30,15.30
2012,10,04,11,31,15.20
2012,10,04,11,32,15.20
2012,10,04,11,33,15.30
2012,10,04,11,34,15.30
2012,10,04,11,35,15.30
2012,10,04,11,36,15.20
2012,10,04,11,37,15.10
2012,10,04,11,38,15.10
2012,10,04,11,39,15.10
2012,10,04,11,40,15.10
2012,10,04,11,41,15.20
2012,10,04,11,42,15.20
2012,10,04,11,43,15.20
2012,10,04,11,44,15.10
2012,10,04,11,45,15.00
2012,10,04,11,46,15.00
2012,10,04,11,47,15.00
2012,10,04,11,48,15.00
2012,10,04,11,49,15.00
2012,10,04,11,50,15.10
2012,10,04,11,51,15.30
2012,10,04,11,52,15.40
2012,10,04,11,53,15.50
2012,10,04,11,54,15.60
2012,10,04,11,55,15.60
2012,10,04,11,56,15.70
2012,10,04,11,57,15.70
2012,10,04,11,58,15.80
2012,10,04,11,59,15.90
2012,10,04,12,00,16.00
2012,10,04,12,01,16.00
2012,10,04,12,02,15.90
2012,10,04,12,03,15.80
2012,10,04,12,04,15.80
2012,10,04,12,05,15.80
2012,10,04,12,06,15.80
2012,10,04,12,07,15.80
2012,10,04,12,08,15.80
2012,10,04,12,09,15.80
2012,10,04,12,10,15.90
2012,10,04,12,11,15.90
2012,10,04,12,12,15.90
2012,10,04,12,13,15.90
2012,10,04,12,14,15.90
2012,10,04,12,15,15.90
2012,10,04,12,16,15.90
2012,10,04,12,17,16.00
2012,10,04,12,18,16.00
2012,10,04,12,19,16.10
2012,10,04,12,20,16.20
2012,10,04,12,21,16.20
2012,10,04,12,22,16.30
2012,10,04,12,23,16.30
2012,10,04,12,24,16.30
2012,10,04,12,25,16.30
2012,10,04,12,26,16.30
2012,10,04,12,27,16.30
2012,10,04,12,28,16.30
2012,10,04,12,29,16.40
2012,10,04,12,30,16.50
2012,10,04,12,31,16.50
2012,10,04,12,32,16.40
2012,10,04,12,33,16.40
2012,10,04,12,34,16.40
2012,10,04,12,35,16.40
2012,10,04,12,36,16.50
2012,10,04,12,37,16.50
2012,10,04,12,38,16.50
2012,10,04,12,39,16.60
2012,10,04,12,40,16.60
2012,10,04,12,41,16.60
2012,10,04,12,42,16.60
2012,10,04,12,43,16.60
2012,10,04,12,44,16.60
2012,10,04,12,45,16.60
2012,10,04,12,46,16.70
2012,10,04,12,47,16.80
2012,10,04,12,48,16.90
2012,10,04,12,49,17.00
2012,10,04,12,50,17.00
2012,10,04,12,51,17.10
2012,10,04,12,52,17.10
2012,10,04,12,53,17.10
2012,10,04,12,54,17.10
2012,10,04,12,55,17.10
2012,10,04,12,56,17.20
2012,10,04,12,57,17.30
2012,10,04,12,58,17.40
2012,10,04,12,59,17.50
2012,10,04,13,00,17.50
2012,10,04,13,01,17.50
2012,10,04,13,02,17.50
2012,10,04,13,03,17.50
2012,10,04,13,04,17.50
2012,10,04,13,05,17.50
2012,10,04,13,06,17.50
2012,10,04,13,07,17.50
2012,10,04,13,08,17.50
2012,10,04,13,09,17.50
2012,10,04,13,10,17.50
2012,10,04,13,11,17.60
2012,10,04,13,12,17.50
2012,10,04,13,13,17.60
2012,10,04,13,14,17.60
2012,10,04,13,15,17.60
2012,10,04,13,16,17.70
2012,10,04,13,17,17.70
2012,10,04,13,18,17.80
2012,10,04,13,19,17.80
2012,10,04,13,20,17.80
2012,10,04,13,21,17.90
2012,10,04,13,22,17.90
2012,10,04,13,23,17.90
2012,10,04,13,24,17.80
2012,10,04,13,25,17.80
2012,10,04,13,26,17.80
2012,10,04,13,27,17.70
2012,10,04,13,28,17.70
2012,10,04,13,29,17.70
2012,10,04,13,30,17.70
2012,10,04,13,31,17.70
2012,10,04,13,32,17.60
2012,10,04,13,33,17.60
2012,10,04,13,34,17.60
2012,10,04,13,35,17.50
2012,10,04,13,36,17.60
2012,10,04,13,37,17.60
2012,10,04,13,38,17.70
2012,10,04,13,39,17.70
2012,10,04,13,40,17.70
2012,10,04,13,41,17.70
2012,10,04,13,42,17.70
2012,10,04,13,43,17.70
2012,10,04,13,44,17.70
2012,10,04,13,45,17.70
2012,10,04,13,46,17.70
2012,10,04,13,47,17.70
2012,10,04,13,48,17.70
2012,10,04,13,49,17.70
2012,10,04,13,50,17.80
2012,10,04,13,51,17.80
2012,10,04,13,52,17.90
2012,10,04,13,53,17.90
2012,10,04,13,54,17.90
2012,10,04,13,55,17.80
2012,10,04,13,56,17.80
2012,10,04,13,57,17.80
2012,10,04,13,58,17.80
2012,10,04,13,59,17.90
2012,10,04,14,00,18.00
2012,10,04,14,01,18.10
2012,10,04,14,02,18.10
2012,10,04,14,03,18.20
2012,10,04,14,04,18.30
2012,10,04,14,05,18.30
2012,10,04,14,06,18.40
2012,10,04,14,07,18.40
2012,10,04,14,08,18.40
2012,10,04,14,09,18.40
2012,10,04,14,10,18.40
2012,10,04,14,11,18.40
2012,10,04,14,12,18.40
2012,10,04,14,13,18.40
2012,10,04,14,14,18.40
2012,10,04,14,15,18.40
2012,10,04,14,16,18.30
2012,10,04,14,17,18.40
2012,10,04,14,18,18.40
2012,10,04,14,19,18.50
2012,10,04,14,20,18.40
2012,10,04,14,21,18.50
2012,10,04,14,22,18.50
2012,10,04,14,23,18.50
2012,10,04,14,24,18.50
2012,10,04,14,25,18.50
2012,10,04,14,26,18.50
2012,10,04,14,27,18.50
2012,10,04,14,28,18.40
2012,10,04,14,29,18.40
2012,10,04,14,30,18.40
2012,10,04,14,31,18.40
2012,10,04,14,32,18.40
2012,10,04,14,33,18.50
2012,10,04,14,34,18.50
2012,10,04,14,35,18.60
2012,10,04,14,36,18.70
2012,10,04,14,37,18.70
2012,10,04,14,38,18.70
2012,10,04,14,39,18.70
2012,10,04,14,40,18.70
2012,10,04,14,41,18.70
2012,10,04,14,42,18.70
2012,10,04,14,43,18.70
2012,10,04,14,44,18.70
2012,10,04,14,45,18.80
2012,10,04,14,46,18.80
2012,10,04,14,47,18.80
2012,10,04,14,48,18.80
2012,10,04,14,49,18.80
2012,10,04,14,50,18.90
2012,10,04,14,51,18.90
2012,10,04,14,52,18.90
2012,10,04,14,53,19.00
2012,10,04,14,54,19.00
2012,10,04,14,55,19.00
2012,10,04,14,56,18.90
2012,10,04,14,57,18.80
2012,10,04,14,58,18.80
2012,10,04,14,59,18.70
2012,10,04,15,00,18.70
2012,10,04,15,01,18.70
2012,10,04,15,02,18.60
2012,10,04,15,03,18.60
2012,10,04,15,04,18.50
2012,10,04,15,05,18.30
2012,10,04,15,06,18.30
2012,10,04,15,07,18.20
2012,10,04,15,08,18.20
2012,10,04,15,09,18.20
2012,10,04,15,10,18.20
2012,10,04,15,11,18.10
2012,10,04,15,12,17.90
2012,10,04,15,13,17.70
2012,10,04,15,14,17.60
2012,10,04,15,15,17.50
2012,10,04,15,16,17.40
2012,10,04,15,17,17.40
2012,10,04,15,18,17.20
2012,10,04,15,19,16.90
2012,10,04,15,20,16.70
2012,10,04,15,21,16.60
2012,10,04,15,22,16.60
2012,10,04,15,23,16.60
2012,10,04,15,24,16.60
2012,10,04,15,25,16.60
2012,10,04,15,26,16.50
2012,10,04,15,27,16.40
2012,10,04,15,28,16.20
2012,10,04,15,29,16.10
2012,10,04,15,30,16.00
2012,10,04,15,31,15.90
2012,10,04,15,32,15.90
2012,10,04,15,33,15.80
2012,10,04,15,34,15.80
2012,10,04,15,35,15.60
2012,10,04,15,36,15.60
2012,10,04,15,37,15.50
2012,10,04,15,38,15.50
2012,10,04,15,39,15.50
2012,10,04,15,40,15.60
2012,10,04,15,41,15.60
2012,10,04,15,42,15.70
2012,10,04,15,43,15.70
2012,10,04,15,44,15.80
2012,10,04,15,45,15.80
2012,10,04,15,46,15.80
2012,10,04,15,47,15.80
2012,10,04,15,48,15.80
2012,10,04,15,49,15.80
2012,10,04,15,50,15.80
2012,10,04,15,51,15.90
2012,10,04,15,52,15.90
2012,10,04,15,53,15.90
2012,10,04,15,54,15.90
2012,10,04,15,55,15.90
2012,10,04,15,56,15.90
2012,10,04,15,57,15.90
2012,10,04,15,58,15.90
2012,10,04,15,59,15.90
2012,10,04,16,00,16.00
2012,10,04,16,01,16.00
2012,10,04,16,02,16.10
2012,10,04,16,03,16.10
2012,10,04,16,04,16.10
2012,10,04,16,05,16.10
2012,10,04,16,06,16.00
2012,10,04,16,07,16.00
2012,10,04,16,08,16.00
2012,10,04,16,09,15.90
2012,10,04,16,10,15.90
2012,10,04,16,11,15.90
2012,10,04,16,12,15.90
2012,10,04,16,13,15.90
2012,10,04,16,14,15.90
2012,10,04,16,15,15.80
2012,10,04,16,16,15.80
2012,10,04,16,17,15.90
2012,10,04,16,18,16.00
2012,10,04,16,19,16.00
2012,10,04,16,20,16.10
2012,10,04,16,21,16.10
2012,10,04,16,22,16.10
2012,10,04,16,23,16.10
2012,10,04,16,24,16.20
2012,10,04,16,25,16.20
2012,10,04,16,26,16.20
2012,10,04,16,27,16.20
2012,10,04,16,28,16.30
2012,10,04,16,29,16.30
2012,10,04,16,30,16.30
2012,10,04,16,31,16.30
2012,10,04,16,32,16.30
2012,10,04,16,33,16.30
2012,10,04,16,34,16.30
2012,10,04,16,35,16.30
2012,10,04,16,36,16.30
2012,10,04,16,37,16.30
2012,10,04,16,38,16.30
2012,10,04,16,39,16.20
2012,10,04,16,40,16.20
2012,10,04,16,41,16.10
2012,10,04,16,42,16.10
2012,10,04,16,43,16.10
2012,10,04,16,44,16.00
2012,10,04,16,45,15.90
2012,10,04,16,46,15.90
2012,10,04,16,47,15.90
2012,10,04,16,48,15.80
2012,10,04,16,49,15.80
2012,10,04,16,50,15.80
2012,10,04,16,51,15.80
2012,10,04,16,52,15.80
2012,10,04,16,53,15.80
2012,10,04,16,54,15.80
2012,10,04,16,55,15.80
2012,10,04,16,56,15.80
2012,10,04,16,57,15.70
2012,10,04,16,58,15.70
2012,10,04,16,59,15.70
2012,10,04,17,00,15.70
2012,10,04,17,01,15.70
2012,10,04,17,02,15.60
2012,10,04,17,03,15.60
2012,10,04,17,04,15.60
2012,10,04,17,05,15.60
2012,10,04,17,06,15.60
2012,10,04,17,07,15.60
2012,10,04,17,08,15.60
2012,10,04,17,09,15.60
2012,10,04,17,10,15.60
2012,10,04,17,11,15.60
2012,10,04,17,12,15.60
2012,10,04,17,13,15.50
2012,10,04,17,14,15.50
2012,10,04,17,15,15.50
2012,10,04,17,16,15.40
2012,10,04,17,17,15.40
2012,10,04,17,18,15.40
2012,10,04,17,19,15.40
2012,10,04,17,20,15.40
2012,10,04,17,21,15.40
2012,10,04,17,22,15.40
2012,10,04,17,23,15.40
2012,10,04,17,24,15.40
2012,10,04,17,25,15.40
2012,10,04,17,26,15.40
2012,10,04,17,27,15.30
2012,10,04,17,28,15.30
2012,10,04,17,29,15.30
2012,10,04,17,30,15.30
2012,10,04,17,31,15.30
2012,10,04,17,32,15.30
2012,10,04,17,33,15.30
2012,10,04,17,34,15.30
2012,10,04,17,35,15.30
2012,10,04,17,36,15.30
2012,10,04,17,37,15.20
2012,10,04,17,38,15.20
2012,10,04,17,39,15.20
2012,10,04,17,40,15.20
2012,10,04,17,41,15.10
2012,10,04,17,42,15.00
2012,10,04,17,43,15.00